| time (UTC) | temp F | wind direction | speed knots | gust knots | rain 1hr in | rain 24hr in | rain mn in | humidity % | barometer mb |
| 20260505101509 | 41 | 141 | 0.0 | 1.7 | 0.00 | 0.01 | 0.00 | 87 | 1015.1 |
| 20260505100014 | 40 | 138 | 0.0 | 2.6 | 0.00 | 0.01 | 0.00 | 86 | 1014.9 |
| 20260505094507 | 41 | 146 | 0.0 | 1.7 | 0.00 | 0.01 | 0.00 | 86 | 1014.8 |
| 20260505093003 | 41 | 325 | 0.0 | 0.0 | 0.00 | 0.01 | 0.00 | 85 | 1014.9 |
| 20260505091500 | 42 | 324 | 0.0 | 0.0 | 0.00 | 0.01 | 0.00 | 84 | 1014.8 |
| 20260505090059 | 42 | 324 | 0.0 | 0.0 | 0.00 | 0.01 | 0.00 | 83 | 1014.9 |
| 20260505084558 | 42 | 325 | 0.0 | 0.9 | 0.00 | 0.01 | 0.00 | 82 | 1015.0 |
| 20260505083058 | 42 | 324 | 0.0 | 0.0 | 0.00 | 0.01 | 0.00 | 82 | 1015.4 |
| 20260505081610 | 42 | 324 | 0.0 | 0.9 | 0.00 | 0.01 | 0.00 | 83 | 1015.4 |
| 20260505080107 | 42 | 325 | 0.0 | 0.9 | 0.00 | 0.01 | 0.00 | 83 | 1015.3 |
| 20260505074555 | 42 | 324 | 0.0 | 0.9 | 0.00 | 0.01 | 0.00 | 83 | 1015.6 |
| 20260505073055 | 42 | 324 | 0.0 | 0.0 | 0.00 | 0.01 | 0.00 | 82 | 1015.7 |
| 20260505071556 | 42 | 324 | 0.0 | 0.9 | 0.00 | 0.01 | 0.00 | 83 | 1015.4 |
| 20260505070056 | 43 | 324 | 0.0 | 1.7 | 0.00 | 0.01 | 0.00 | 82 | 1015.6 |
| 20260505064549 | 43 | 324 | 0.0 | 2.6 | 0.00 | 0.01 | 0.01 | 83 | 1015.6 |
| 20260505063049 | 43 | 313 | 0.0 | 3.5 | 0.00 | 0.01 | 0.01 | 83 | 1015.7 |
| 20260505061546 | 43 | 313 | 0.0 | 0.9 | 0.00 | 0.01 | 0.01 | 83 | 1015.6 |
| 20260505060044 | 44 | 313 | 0.0 | 0.9 | 0.00 | 0.01 | 0.01 | 80 | 1015.6 |
| 20260505054551 | 45 | 313 | 0.0 | 2.6 | 0.00 | 0.01 | 0.01 | 75 | 1015.7 |
| 20260505053053 | 45 | 298 | 0.0 | 4.3 | 0.00 | 0.01 | 0.01 | 73 | 1015.6 |
| 20260505051542 | 45 | 281 | 0.0 | 2.6 | 0.00 | 0.01 | 0.01 | 71 | 1015.5 |
| 20260505041533 | 45 | 283 | 0.0 | 3.5 | 0.00 | 0.01 | 0.01 | 71 | 1014.7 |
| 20260505040037 | 46 | 20 | 0.0 | 1.7 | 0.00 | 0.01 | 0.01 | 68 | 1014.6 |
| 20260505034529 | 46 | 310 | 1.7 | 6.1 | 0.00 | 0.01 | 0.01 | 66 | 1014.3 |
| 20260505033031 | 46 | 300 | 0.9 | 7.0 | 0.00 | 0.01 | 0.01 | 67 | 1014.2 |
| 20260505031525 | 47 | 319 | 1.7 | 7.0 | 0.00 | 0.01 | 0.01 | 65 | 1014.2 |
| 20260505030026 | 47 | 34 | 1.7 | 7.0 | 0.00 | 0.01 | 0.01 | 64 | 1013.6 |
| 20260505024521 | 47 | 351 | 0.9 | 3.5 | 0.00 | 0.01 | 0.01 | 63 | 1014.0 |
| 20260505023021 | 47 | 330 | 0.0 | 3.5 | 0.00 | 0.01 | 0.01 | 64 | 1013.7 |
| 20260505021520 | 47 | 24 | 0.0 | 2.6 | 0.01 | 0.01 | 0.01 | 65 | 1014.2 |
| 20260505020017 | 48 | 301 | 1.7 | 3.5 | 0.01 | 0.01 | 0.01 | 62 | 1014.2 |
| 20260505014517 | 48 | 325 | 0.9 | 5.2 | 0.01 | 0.01 | 0.01 | 62 | 1013.5 |
| 20260505013015 | 49 | 330 | 4.3 | 11.3 | 0.01 | 0.01 | 0.01 | 60 | 1013.5 |
| 20260505011512 | 51 | 327 | 1.7 | 9.6 | 0.00 | 0.00 | 0.00 | 54 | 1013.4 |
| 20260505010008 | 52 | 311 | 4.3 | 7.0 | 0.00 | 0.00 | 0.00 | 50 | 1012.8 |
| 20260505004508 | 52 | 271 | 1.7 | 7.8 | 0.00 | 0.00 | 0.00 | 54 | 1012.8 |
| 20260505003005 | 54 | 105 | 4.3 | 13.9 | 0.00 | 0.00 | 0.00 | 43 | 1012.3 |
| 20260505001503 | 57 | 23 | 0.9 | 2.6 | 0.00 | 0.00 | 0.00 | 37 | 1011.5 |
| 20260505000003 | 58 | 28 | 1.7 | 5.2 | 0.00 | 0.00 | 0.00 | 37 | 1011.4 |
| 20260504234503 | 59 | 49 | 0.9 | 4.3 | 0.00 | 0.00 | 0.00 | 34 | 1011.2 |
| 20260504233002 | 60 | 118 | 0.9 | 4.3 | 0.00 | 0.00 | 0.00 | 35 | 1010.9 |
| 20260504231501 | 60 | 28 | 0.0 | 4.3 | 0.00 | 0.00 | 0.00 | 36 | 1011.1 |
| 20260504230002 | 60 | 122 | 0.0 | 2.6 | 0.00 | 0.00 | 0.00 | 38 | 1011.1 |
| 20260504224602 | 60 | 295 | 0.0 | 2.6 | 0.00 | 0.00 | 0.00 | 32 | 1010.7 |
| 20260504223100 | 60 | 99 | 0.0 | 6.1 | 0.00 | 0.00 | 0.00 | 35 | 1010.6 |
| 20260504221600 | 61 | 130 | 1.7 | 4.3 | 0.00 | 0.00 | 0.00 | 31 | 1010.8 |
| 20260504220118 | 60 | 131 | 0.9 | 4.3 | 0.00 | 0.00 | 0.00 | 31 | 1010.9 |
| 20260504214559 | 60 | 15 | 7.0 | 12.2 | 0.00 | 0.00 | 0.00 | 31 | 1011.1 |
| 20260504213101 | 60 | 324 | 0.9 | 3.5 | 0.00 | 0.00 | 0.00 | 29 | 1011.0 |
| 20260504211557 | 61 | 349 | 4.3 | 8.7 | 0.00 | 0.00 | 0.00 | 27 | 1010.5 |
| 20260504210056 | 63 | 43 | 2.6 | 8.7 | 0.00 | 0.00 | 0.00 | 26 | 1010.4 |
| 20260504204556 | 66 | 315 | 0.9 | 3.5 | 0.00 | 0.00 | 0.00 | 23 | 1010.4 |
| 20260504203055 | 66 | 136 | 0.9 | 4.3 | 0.00 | 0.00 | 0.00 | 24 | 1010.5 |
| 20260504201554 | 64 | 321 | 1.7 | 6.1 | 0.00 | 0.00 | 0.00 | 26 | 1011.1 |
| 20260504200058 | 61 | 332 | 1.7 | 10.4 | 0.00 | 0.00 | 0.00 | 28 | 1011.2 |
| 20260504194552 | 62 | 317 | 8.7 | 15.6 | 0.00 | 0.00 | 0.00 | 25 | 1011.2 |
| 20260504193051 | 66 | 24 | 3.5 | 9.6 | 0.00 | 0.00 | 0.00 | 20 | 1011.2 |
| 20260504191556 | 68 | 273 | 0.9 | 4.3 | 0.00 | 0.00 | 0.00 | 19 | 1011.2 |
| 20260504190059 | 68 | 226 | 1.7 | 6.1 | 0.00 | 0.00 | 0.00 | 19 | 1011.2 |
| 20260504184559 | 66 | 140 | 1.7 | 12.2 | 0.00 | 0.00 | 0.00 | 20 | 1011.9 |
| 20260504183050 | 65 | 222 | 0.9 | 8.7 | 0.00 | 0.00 | 0.00 | 20 | 1011.9 |
| 20260504181548 | 64 | 300 | 2.6 | 7.0 | 0.00 | 0.00 | 0.00 | 19 | 1012.5 |
| 20260504180043 | 66 | 130 | 0.0 | 8.7 | 0.00 | 0.00 | 0.00 | 22 | 1012.4 |
| 20260504174541 | 66 | 137 | 0.9 | 7.0 | 0.00 | 0.00 | 0.00 | 22 | 1012.6 |
| 20260504173039 | 60 | 286 | 0.9 | 7.0 | 0.00 | 0.00 | 0.00 | 25 | 1013.2 |
| 20260504171536 | 60 | 309 | 6.1 | 15.6 | 0.00 | 0.00 | 0.00 | 23 | 1013.2 |